| time (UTC) | temp C | wind direction | speed KPH | gust KPH | rain 1hr cm | rain 24hr cm | rain mn cm | humidity % | barometer mb |
| 20260906125518 | 21 | 158 | 1.6 | 4.8 | 0.00 | 0.00 | 0.00 | 99 | 1019.1 |
| 20260906125013 | 21 | 200 | 1.6 | 3.2 | 0.00 | 0.00 | 0.00 | 99 | 1019.2 |
| 20260906124509 | 21 | 75 | 1.6 | 3.2 | 0.00 | 0.00 | 0.00 | 99 | 1019.2 |
| 20260906124003 | 21 | 64 | 3.2 | 4.8 | 0.00 | 0.00 | 0.00 | 99 | 1019.0 |
| 20260906123456 | 21 | 83 | 1.6 | 4.8 | 0.00 | 0.00 | 0.00 | 99 | 1018.9 |
| 20260906122950 | 21 | 203 | 1.6 | 11.3 | 0.00 | 0.00 | 0.00 | 99 | 1018.9 |
| 20260906122446 | 21 | 120 | 0.0 | 1.6 | 0.00 | 0.00 | 0.00 | 99 | 1018.7 |
| 20260906121942 | 21 | 170 | 0.0 | 6.4 | 0.00 | 0.00 | 0.00 | 99 | 1018.8 |
| 20260906121438 | 21 | 82 | 1.6 | 1.6 | 0.00 | 0.00 | 0.00 | 99 | 1018.8 |
| 20260906120935 | 21 | 90 | 4.8 | 4.8 | 0.00 | 0.00 | 0.00 | 99 | 1018.9 |
| 20260906120430 | 21 | 195 | 0.0 | 4.8 | 0.00 | 0.00 | 0.00 | 99 | 1018.7 |
| 20260906115925 | 21 | 174 | 1.6 | 4.8 | 0.00 | 0.00 | 0.00 | 99 | 1018.6 |
| 20260906115420 | 21 | 122 | 0.0 | 1.6 | 0.00 | 0.00 | 0.00 | 99 | 1018.9 |
| 20260906114915 | 21 | 347 | 1.6 | 6.4 | 0.00 | 0.00 | 0.00 | 99 | 1019.0 |
| 20260906114410 | 20 | 172 | 0.0 | 3.2 | 0.00 | 0.00 | 0.00 | 99 | 1018.9 |
| 20260906113906 | 20 | 120 | 1.6 | 4.8 | 0.00 | 0.00 | 0.00 | 99 | 1019.0 |
| 20260906113404 | 20 | 92 | 6.4 | 6.4 | 0.00 | 0.00 | 0.00 | 99 | 1018.9 |
| 20260906112900 | 20 | 86 | 3.2 | 3.2 | 0.00 | 0.00 | 0.00 | 99 | 1018.8 |
| 20260906112355 | 20 | 115 | 3.2 | 3.2 | 0.00 | 0.00 | 0.00 | 99 | 1018.7 |
| 20260906111850 | 20 | 195 | 0.0 | 4.8 | 0.00 | 0.00 | 0.00 | 99 | 1018.8 |
| 20260906111349 | 20 | 211 | 3.2 | 6.4 | 0.00 | 0.00 | 0.00 | 99 | 1019.0 |
| 20260906110844 | 20 | 123 | 3.2 | 4.8 | 0.00 | 0.00 | 0.00 | 99 | 1018.9 |
| 20260906110340 | 20 | 181 | 1.6 | 4.8 | 0.00 | 0.00 | 0.00 | 99 | 1018.8 |
| 20260906105839 | 20 | 113 | 3.2 | 4.8 | 0.00 | 0.00 | 0.00 | 99 | 1019.1 |
| 20260906105335 | 20 | 75 | 1.6 | 6.4 | 0.00 | 0.00 | 0.00 | 99 | 1019.0 |
| 20260906104831 | 20 | 82 | 1.6 | 3.2 | 0.00 | 0.00 | 0.00 | 99 | 1019.1 |
| 20260906104329 | 20 | 93 | 4.8 | 6.4 | 0.00 | 0.00 | 0.00 | 99 | 1018.7 |
| 20260906103828 | 20 | 121 | 1.6 | 9.7 | 0.00 | 0.00 | 0.00 | 99 | 1018.9 |
| 20260906103326 | 20 | 98 | 4.8 | 6.4 | 0.00 | 0.00 | 0.00 | 99 | 1018.9 |
| 20260906102823 | 20 | 48 | 3.2 | 4.8 | 0.00 | 0.00 | 0.00 | 99 | 1019.0 |
| 20260906102321 | 20 | 234 | 0.0 | 4.8 | 0.00 | 0.00 | 0.00 | 99 | 1019.0 |
| 20260906101817 | 20 | 181 | 0.0 | 4.8 | 0.00 | 0.00 | 0.00 | 99 | 1019.1 |
| 20260906101312 | 20 | 91 | 4.8 | 6.4 | 0.00 | 0.00 | 0.00 | 99 | 1019.2 |
| 20260906100808 | 20 | 71 | 3.2 | 9.7 | 0.00 | 0.00 | 0.00 | 99 | 1019.0 |
| 20260906100306 | 20 | 112 | 3.2 | 4.8 | 0.00 | 0.00 | 0.00 | 99 | 1018.9 |
| 20260906095801 | 20 | 169 | 0.0 | 3.2 | 0.00 | 0.00 | 0.00 | 99 | 1018.9 |
| 20260906095252 | 20 | 246 | 1.6 | 4.8 | 0.00 | 0.00 | 0.00 | 99 | 1018.9 |
| 20260906094750 | 20 | 246 | 4.8 | 6.4 | 0.00 | 0.00 | 0.00 | 99 | 1018.8 |
| 20260906094246 | 20 | 228 | 1.6 | 3.2 | 0.00 | 0.00 | 0.00 | 99 | 1018.7 |
| 20260906093742 | 20 | 179 | 0.0 | 3.2 | 0.00 | 0.00 | 0.00 | 99 | 1018.6 |
| 20260906093237 | 20 | 229 | 3.2 | 3.2 | 0.00 | 0.00 | 0.00 | 99 | 1018.8 |
| 20260906092733 | 20 | 192 | 1.6 | 4.8 | 0.00 | 0.00 | 0.00 | 99 | 1018.5 |
| 20260906092233 | 20 | 27 | 1.6 | 1.6 | 0.00 | 0.00 | 0.00 | 99 | 1018.5 |
| 20260906091728 | 20 | 109 | 6.4 | 11.3 | 0.00 | 0.00 | 0.00 | 99 | 1018.4 |
| 20260906091224 | 20 | 120 | 3.2 | 6.4 | 0.00 | 0.00 | 0.00 | 99 | 1018.2 |
| 20260906090721 | 20 | 139 | 3.2 | 6.4 | 0.00 | 0.00 | 0.00 | 99 | 1018.4 |
| 20260906090219 | 20 | 127 | 1.6 | 3.2 | 0.00 | 0.00 | 0.00 | 99 | 1018.4 |
| 20260906085719 | 20 | 107 | 3.2 | 4.8 | 0.00 | 0.00 | 0.00 | 99 | 1018.6 |
| 20260906085217 | 20 | 209 | 1.6 | 9.7 | 0.00 | 0.00 | 0.00 | 99 | 1018.5 |
| 20260906084712 | 20 | 158 | 3.2 | 4.8 | 0.00 | 0.00 | 0.00 | 99 | 1018.5 |
| 20260906084207 | 20 | 99 | 6.4 | 12.9 | 0.00 | 0.00 | 0.00 | 99 | 1018.2 |
| 20260906083701 | 20 | 30 | 3.2 | 4.8 | 0.00 | 0.00 | 0.00 | 99 | 1018.2 |
| 20260906083156 | 21 | 84 | 3.2 | 6.4 | 0.00 | 0.00 | 0.00 | 98 | 1018.0 |
| 20260906082652 | 21 | 101 | 6.4 | 9.7 | 0.00 | 0.00 | 0.00 | 98 | 1018.2 |
| 20260906082148 | 21 | 62 | 4.8 | 14.5 | 0.00 | 0.00 | 0.00 | 98 | 1018.1 |
| 20260906081643 | 21 | 94 | 4.8 | 9.7 | 0.00 | 0.00 | 0.00 | 98 | 1017.9 |
| 20260906081138 | 20 | 104 | 8.0 | 11.3 | 0.00 | 0.00 | 0.00 | 99 | 1017.9 |
| 20260906080635 | 21 | 71 | 3.2 | 6.4 | 0.00 | 0.00 | 0.00 | 98 | 1017.9 |
| 20260906080130 | 20 | 84 | 3.2 | 6.4 | 0.00 | 0.00 | 0.00 | 98 | 1018.1 |
| 20260906075624 | 20 | 96 | 4.8 | 12.9 | 0.00 | 0.00 | 0.00 | 98 | 1018.1 |
| 20260906075119 | 20 | 92 | 4.8 | 6.4 | 0.00 | 0.00 | 0.00 | 98 | 1018.2 |
| 20260906074614 | 20 | 119 | 3.2 | 9.7 | 0.00 | 0.00 | 0.00 | 98 | 1018.2 |
| 20260906074113 | 20 | 79 | 4.8 | 9.7 | 0.00 | 0.00 | 0.00 | 98 | 1018.3 |
| 20260906073608 | 21 | 103 | 4.8 | 6.4 | 0.00 | 0.00 | 0.00 | 97 | 1018.2 |
| 20260906073104 | 21 | 132 | 6.4 | 11.3 | 0.00 | 0.00 | 0.00 | 97 | 1018.2 |
| 20260906072604 | 21 | 157 | 4.8 | 6.4 | 0.00 | 0.00 | 0.00 | 97 | 1018.3 |
| 20260906072100 | 21 | 71 | 3.2 | 9.7 | 0.00 | 0.00 | 0.00 | 97 | 1018.4 |
| 20260906071556 | 21 | 98 | 6.4 | 6.4 | 0.00 | 0.00 | 0.00 | 97 | 1018.5 |
| 20260906071051 | 21 | 113 | 3.2 | 9.7 | 0.00 | 0.00 | 0.00 | 96 | 1018.7 |
| 20260906070548 | 21 | 86 | 3.2 | 9.7 | 0.00 | 0.00 | 0.00 | 96 | 1018.5 |
| 20260906070043 | 21 | 109 | 3.2 | 6.4 | 0.00 | 0.00 | 0.00 | 96 | 1018.7 |
| 20260906065543 | 21 | 91 | 3.2 | 9.7 | 0.00 | 0.00 | 0.00 | 96 | 1018.4 |
| 20260906065039 | 21 | 58 | 1.6 | 6.4 | 0.00 | 0.00 | 0.00 | 96 | 1018.6 |
| 20260906064534 | 21 | 121 | 4.8 | 6.4 | 0.00 | 0.00 | 0.00 | 96 | 1018.8 |
| 20260906064028 | 21 | 111 | 3.2 | 6.4 | 0.00 | 0.00 | 0.00 | 95 | 1018.7 |
| 20260906063524 | 21 | 108 | 3.2 | 9.7 | 0.00 | 0.00 | 0.00 | 95 | 1019.0 |
| 20260906063020 | 21 | 110 | 3.2 | 4.8 | 0.00 | 0.00 | 0.00 | 95 | 1018.9 |
| 20260906062515 | 21 | 82 | 3.2 | 6.4 | 0.00 | 0.00 | 0.00 | 95 | 1019.0 |
| 20260906062010 | 21 | 117 | 3.2 | 6.4 | 0.00 | 0.00 | 0.00 | 94 | 1018.9 |
| 20260906061505 | 21 | 93 | 3.2 | 4.8 | 0.00 | 0.00 | 0.00 | 94 | 1019.0 |
| 20260906060959 | 21 | 108 | 3.2 | 4.8 | 0.00 | 0.00 | 0.00 | 94 | 1019.2 |
| 20260906060456 | 21 | 112 | 3.2 | 4.8 | 0.00 | 0.00 | 0.00 | 94 | 1019.1 |
| 20260906055953 | 21 | 84 | 3.2 | 4.8 | 0.00 | 0.00 | 0.00 | 94 | 1019.0 |
| 20260906055449 | 21 | 149 | 4.8 | 9.7 | 0.00 | 0.00 | 0.00 | 94 | 1019.1 |
| 20260906054944 | 21 | 75 | 4.8 | 4.8 | 0.00 | 0.00 | 0.00 | 94 | 1018.9 |
| 20260906054443 | 21 | 60 | 4.8 | 9.7 | 0.00 | 0.00 | 0.00 | 94 | 1019.0 |
| 20260906053939 | 21 | 125 | 1.6 | 6.4 | 0.00 | 0.00 | 0.00 | 93 | 1019.0 |
| 20260906053436 | 21 | 149 | 6.4 | 12.9 | 0.00 | 0.00 | 0.00 | 93 | 1018.9 |
| 20260906052931 | 21 | 99 | 9.7 | 12.9 | 0.00 | 0.00 | 0.00 | 94 | 1019.0 |
| 20260906052427 | 21 | 117 | 3.2 | 4.8 | 0.00 | 0.00 | 0.00 | 93 | 1019.1 |
| 20260906051923 | 21 | 109 | 3.2 | 6.4 | 0.00 | 0.00 | 0.00 | 93 | 1019.3 |
| 20260906051418 | 21 | 90 | 1.6 | 6.4 | 0.00 | 0.00 | 0.00 | 93 | 1019.3 |
| 20260906050914 | 21 | 129 | 1.6 | 4.8 | 0.00 | 0.00 | 0.00 | 93 | 1019.2 |
| 20260906050408 | 21 | 107 | 4.8 | 6.4 | 0.00 | 0.00 | 0.00 | 93 | 1019.2 |
| 20260906045908 | 21 | 112 | 3.2 | 11.3 | 0.00 | 0.00 | 0.00 | 93 | 1019.3 |
| 20260906045406 | 21 | 102 | 4.8 | 6.4 | 0.00 | 0.00 | 0.00 | 93 | 1019.2 |
| 20260906044903 | 21 | 165 | 1.6 | 6.4 | 0.00 | 0.00 | 0.00 | 92 | 1019.1 |
| 20260906044402 | 21 | 103 | 3.2 | 6.4 | 0.00 | 0.00 | 0.00 | 92 | 1019.1 |
| 20260906043858 | 21 | 95 | 1.6 | 4.8 | 0.00 | 0.00 | 0.00 | 92 | 1019.3 |
| 20260906043354 | 21 | 88 | 3.2 | 4.8 | 0.00 | 0.00 | 0.00 | 92 | 1019.3 |
| 20260906042849 | 21 | 100 | 6.4 | 12.9 | 0.00 | 0.00 | 0.00 | 91 | 1019.1 |
| 20260906042348 | 21 | 72 | 4.8 | 6.4 | 0.00 | 0.00 | 0.00 | 91 | 1019.0 |
| 20260906041843 | 21 | 55 | 6.4 | 9.7 | 0.00 | 0.00 | 0.00 | 91 | 1019.1 |
| 20260906041339 | 21 | 190 | 1.6 | 6.4 | 0.00 | 0.00 | 0.00 | 91 | 1019.1 |
| 20260906040834 | 21 | 160 | 1.6 | 6.4 | 0.00 | 0.00 | 0.00 | 91 | 1019.1 |
| 20260906040329 | 21 | 154 | 1.6 | 6.4 | 0.00 | 0.00 | 0.00 | 91 | 1019.0 |
| 20260906035824 | 21 | 80 | 6.4 | 9.7 | 0.00 | 0.00 | 0.00 | 90 | 1019.0 |
| 20260906035325 | 22 | 144 | 1.6 | 4.8 | 0.00 | 0.00 | 0.00 | 89 | 1018.9 |
| 20260906034820 | 22 | 97 | 6.4 | 11.3 | 0.00 | 0.00 | 0.00 | 89 | 1018.9 |
| 20260906034315 | 22 | 97 | 6.4 | 14.5 | 0.00 | 0.00 | 0.00 | 88 | 1018.9 |
| 20260906033811 | 22 | 95 | 8.0 | 12.9 | 0.00 | 0.00 | 0.00 | 88 | 1018.8 |
| 20260906033310 | 22 | 163 | 0.0 | 4.8 | 0.00 | 0.00 | 0.00 | 88 | 1018.8 |
| 20260906032807 | 22 | 109 | 9.7 | 12.9 | 0.00 | 0.00 | 0.00 | 88 | 1019.0 |
| 20260906032305 | 22 | 96 | 3.2 | 9.7 | 0.00 | 0.00 | 0.00 | 87 | 1019.0 |
| 20260906031757 | 22 | 90 | 3.2 | 6.4 | 0.00 | 0.00 | 0.00 | 87 | 1019.1 |
| 20260906031253 | 22 | 123 | 3.2 | 6.4 | 0.00 | 0.00 | 0.00 | 87 | 1018.9 |
| 20260906030752 | 22 | 108 | 4.8 | 11.3 | 0.00 | 0.00 | 0.00 | 87 | 1018.8 |
| 20260906030248 | 23 | 155 | 3.2 | 9.7 | 0.00 | 0.00 | 0.00 | 86 | 1018.8 |
| 20260906025747 | 22 | 97 | 8.0 | 11.3 | 0.00 | 0.00 | 0.00 | 86 | 1018.8 |
| 20260906025241 | 23 | 81 | 4.8 | 6.4 | 0.00 | 0.00 | 0.00 | 86 | 1018.7 |
| 20260906024741 | 23 | 63 | 4.8 | 6.4 | 0.00 | 0.00 | 0.00 | 86 | 1018.6 |
| 20260906024239 | 23 | 124 | 1.6 | 9.7 | 0.00 | 0.00 | 0.00 | 85 | 1018.9 |
| 20260906023735 | 23 | 69 | 4.8 | 6.4 | 0.00 | 0.00 | 0.00 | 85 | 1018.8 |
| 20260906023230 | 23 | 87 | 6.4 | 12.9 | 0.00 | 0.00 | 0.00 | 84 | 1018.7 |
| 20260906022726 | 23 | 81 | 4.8 | 11.3 | 0.00 | 0.00 | 0.00 | 84 | 1018.5 |
| 20260906022221 | 23 | 84 | 3.2 | 14.5 | 0.00 | 0.00 | 0.00 | 84 | 1018.8 |
| 20260906021718 | 23 | 131 | 8.0 | 9.7 | 0.00 | 0.00 | 0.00 | 84 | 1018.7 |
| 20260906021216 | 23 | 88 | 3.2 | 3.2 | 0.00 | 0.00 | 0.00 | 84 | 1018.7 |
| 20260906020711 | 23 | 147 | 4.8 | 6.4 | 0.00 | 0.00 | 0.00 | 84 | 1018.9 |
| 20260906020206 | 23 | 77 | 1.6 | 4.8 | 0.00 | 0.00 | 0.00 | 83 | 1018.7 |
| 20260906015705 | 23 | 147 | 1.6 | 4.8 | 0.00 | 0.00 | 0.00 | 84 | 1018.5 |
| 20260906015158 | 23 | 76 | 3.2 | 3.2 | 0.00 | 0.00 | 0.00 | 84 | 1018.4 |
| 20260906014653 | 23 | 128 | 0.0 | 3.2 | 0.00 | 0.00 | 0.00 | 83 | 1018.4 |
| 20260906014149 | 23 | 98 | 3.2 | 4.8 | 0.00 | 0.00 | 0.00 | 84 | 1018.4 |
| 20260906013645 | 23 | 162 | 0.0 | 0.0 | 0.00 | 0.00 | 0.00 | 84 | 1018.6 |
| 20260906013140 | 23 | 159 | 0.0 | 1.6 | 0.00 | 0.00 | 0.00 | 83 | 1018.6 |
| 20260906012639 | 23 | 144 | 0.0 | 1.6 | 0.00 | 0.00 | 0.00 | 82 | 1018.5 |
| 20260906012134 | 24 | 176 | 0.0 | 1.6 | 0.00 | 0.00 | 0.00 | 81 | 1018.5 |
| 20260906011630 | 24 | 107 | 0.0 | 3.2 | 0.00 | 0.00 | 0.00 | 81 | 1018.1 |
| 20260906011125 | 25 | 137 | 1.6 | 3.2 | 0.00 | 0.00 | 0.00 | 80 | 1018.2 |
| 20260906010620 | 25 | 104 | 1.6 | 1.6 | 0.00 | 0.00 | 0.00 | 80 | 1018.2 |
| 20260906010116 | 25 | 139 | 1.6 | 3.2 | 0.00 | 0.00 | 0.00 | 79 | 1018.4 |
| 20260906005615 | 25 | 83 | 1.6 | 3.2 | 0.00 | 0.00 | 0.00 | 79 | 1018.2 |
| 20260906005114 | 25 | 98 | 3.2 | 4.8 | 0.00 | 0.00 | 0.00 | 78 | 1018.1 |
| 20260906004608 | 25 | 133 | 3.2 | 3.2 | 0.00 | 0.00 | 0.00 | 78 | 1017.8 |
| 20260906004103 | 25 | 135 | 0.0 | 1.6 | 0.00 | 0.00 | 0.00 | 77 | 1017.7 |
| 20260906003559 | 26 | 90 | 1.6 | 3.2 | 0.00 | 0.00 | 0.00 | 77 | 1017.7 |
| 20260906003055 | 26 | 70 | 3.2 | 4.8 | 0.00 | 0.00 | 0.00 | 77 | 1017.4 |
| 20260906002554 | 26 | 94 | 1.6 | 16.1 | 0.00 | 0.00 | 0.00 | 76 | 1017.4 |
| 20260906002049 | 26 | 147 | 1.6 | 3.2 | 0.00 | 0.00 | 0.00 | 76 | 1017.0 |
| 20260906001544 | 26 | 183 | 3.2 | 6.4 | 0.00 | 0.00 | 0.00 | 75 | 1016.9 |
| 20260906001039 | 27 | 169 | 1.6 | 14.5 | 0.00 | 0.00 | 0.00 | 74 | 1016.9 |
| 20260906000535 | 27 | 74 | 1.6 | 6.4 | 0.00 | 0.00 | 0.00 | 74 | 1016.7 |
| 20260906000030 | 27 | 126 | 1.6 | 11.3 | 0.00 | 0.00 | 0.00 | 73 | 1016.5 |
| 20260905235524 | 27 | 100 | 3.2 | 6.4 | 0.00 | 0.00 | 0.00 | 73 | 1016.6 |
| 20260905235019 | 27 | 235 | 4.8 | 9.7 | 0.00 | 0.00 | 0.00 | 72 | 1016.4 |
| 20260905234515 | 27 | 214 | 3.2 | 12.9 | 0.00 | 0.00 | 0.00 | 73 | 1016.5 |
| 20260905234014 | 27 | 82 | 8.0 | 12.9 | 0.00 | 0.00 | 0.00 | 72 | 1016.6 |
| 20260905233509 | 27 | 135 | 9.7 | 14.5 | 0.00 | 0.00 | 0.00 | 72 | 1016.4 |
| 20260905233009 | 27 | 97 | 3.2 | 4.8 | 0.00 | 0.00 | 0.00 | 71 | 1016.3 |
| 20260905232505 | 27 | 88 | 4.8 | 17.7 | 0.00 | 0.00 | 0.00 | 71 | 1016.5 |
| 20260905232000 | 27 | 122 | 6.4 | 14.5 | 0.00 | 0.00 | 0.00 | 71 | 1016.4 |
| 20260905231455 | 28 | 180 | 6.4 | 9.7 | 0.00 | 0.00 | 0.00 | 71 | 1016.1 |
| 20260905230952 | 28 | 107 | 9.7 | 12.9 | 0.00 | 0.00 | 0.00 | 71 | 1016.2 |
| 20260905230450 | 28 | 92 | 3.2 | 12.9 | 0.00 | 0.00 | 0.00 | 70 | 1016.2 |
| 20260905225948 | 28 | 89 | 4.8 | 16.1 | 0.00 | 0.00 | 0.00 | 70 | 1016.2 |
| 20260905225444 | 28 | 93 | 9.7 | 14.5 | 0.00 | 0.00 | 0.00 | 70 | 1016.3 |
| 20260905224939 | 28 | 83 | 8.0 | 24.1 | 0.00 | 0.00 | 0.00 | 70 | 1016.2 |
| 20260905224434 | 28 | 75 | 3.2 | 9.7 | 0.00 | 0.00 | 0.00 | 71 | 1016.2 |
| 20260905223928 | 28 | 122 | 6.4 | 14.5 | 0.00 | 0.00 | 0.00 | 71 | 1016.1 |
| 20260905223426 | 28 | 150 | 4.8 | 20.9 | 0.00 | 0.00 | 0.00 | 72 | 1016.1 |
| 20260905222921 | 28 | 65 | 4.8 | 9.7 | 0.00 | 0.00 | 0.00 | 71 | 1016.2 |
| 20260905222420 | 28 | 43 | 6.4 | 14.5 | 0.00 | 0.00 | 0.00 | 71 | 1015.9 |
| 20260905221916 | 28 | 68 | 3.2 | 12.9 | 0.00 | 0.00 | 0.00 | 72 | 1016.1 |
| 20260905221413 | 28 | 105 | 6.4 | 12.9 | 0.00 | 0.00 | 0.00 | 72 | 1016.1 |
| 20260905220909 | 28 | 58 | 6.4 | 14.5 | 0.00 | 0.00 | 0.00 | 72 | 1016.1 |
| 20260905220404 | 28 | 63 | 9.7 | 24.1 | 0.00 | 0.00 | 0.00 | 72 | 1016.1 |
| 20260905215903 | 28 | 100 | 8.0 | 16.1 | 0.00 | 0.00 | 0.00 | 72 | 1016.1 |
| 20260905215359 | 28 | 95 | 4.8 | 17.7 | 0.00 | 0.00 | 0.00 | 73 | 1016.4 |
| 20260905214855 | 28 | 81 | 6.4 | 16.1 | 0.00 | 0.00 | 0.00 | 74 | 1016.3 |
| 20260905214351 | 28 | 159 | 6.4 | 11.3 | 0.00 | 0.00 | 0.00 | 72 | 1016.5 |
| 20260905213845 | 28 | 104 | 3.2 | 16.1 | 0.00 | 0.00 | 0.00 | 73 | 1016.5 |
| 20260905213341 | 28 | 123 | 8.0 | 14.5 | 0.00 | 0.00 | 0.00 | 73 | 1016.5 |
| 20260905212836 | 28 | 71 | 11.3 | 20.9 | 0.00 | 0.00 | 0.00 | 74 | 1016.6 |
| 20260905212336 | 28 | 94 | 6.4 | 12.9 | 0.00 | 0.00 | 0.00 | 73 | 1016.8 |
| 20260905211830 | 28 | 79 | 6.4 | 14.5 | 0.00 | 0.00 | 0.00 | 73 | 1017.2 |
| 20260905211326 | 28 | 84 | 4.8 | 16.1 | 0.00 | 0.00 | 0.00 | 75 | 1017.4 |
| 20260905210822 | 28 | 73 | 6.4 | 14.5 | 0.00 | 0.00 | 0.00 | 74 | 1017.5 |
| 20260905210321 | 28 | 61 | 8.0 | 12.9 | 0.00 | 0.00 | 0.00 | 74 | 1017.7 |
| 20260905205815 | 28 | 59 | 9.7 | 16.1 | 0.00 | 0.00 | 0.00 | 73 | 1017.6 |
| 20260905205310 | 28 | 114 | 6.4 | 11.3 | 0.00 | 0.00 | 0.00 | 74 | 1017.8 |
| 20260905204809 | 28 | 103 | 9.7 | 14.5 | 0.00 | 0.00 | 0.00 | 74 | 1017.8 |
| 20260905204305 | 28 | 284 | 8.0 | 12.9 | 0.00 | 0.00 | 0.00 | 76 | 1017.7 |
| 20260905203804 | 28 | 84 | 9.7 | 16.1 | 0.00 | 0.00 | 0.00 | 75 | 1017.7 |
| 20260905203259 | 27 | 71 | 11.3 | 16.1 | 0.00 | 0.00 | 0.00 | 76 | 1017.7 |
| 20260905202750 | 28 | 356 | 4.8 | 6.4 | 0.00 | 0.00 | 0.00 | 76 | 1017.8 |
| 20260905202244 | 27 | 103 | 9.7 | 12.9 | 0.00 | 0.00 | 0.00 | 76 | 1017.9 |
| 20260905201740 | 27 | 104 | 3.2 | 12.9 | 0.00 | 0.00 | 0.00 | 78 | 1018.0 |
| 20260905201235 | 27 | 47 | 6.4 | 12.9 | 0.00 | 0.00 | 0.00 | 77 | 1018.0 |
| 20260905200730 | 27 | 92 | 9.7 | 12.9 | 0.00 | 0.00 | 0.00 | 78 | 1017.9 |
| 20260905200226 | 27 | 99 | 8.0 | 12.9 | 0.00 | 0.00 | 0.00 | 78 | 1017.9 |
| 20260905195723 | 26 | 100 | 9.7 | 16.1 | 0.00 | 0.00 | 0.00 | 79 | 1018.1 |
| 20260905195218 | 27 | 93 | 6.4 | 11.3 | 0.00 | 0.00 | 0.00 | 79 | 1018.2 |
| 20260905194714 | 26 | 101 | 6.4 | 14.5 | 0.00 | 0.00 | 0.00 | 78 | 1018.2 |
| 20260905194214 | 26 | 73 | 8.0 | 12.9 | 0.00 | 0.00 | 0.00 | 77 | 1018.4 |
| 20260905193708 | 26 | 111 | 3.2 | 11.3 | 0.00 | 0.00 | 0.00 | 78 | 1018.3 |
| 20260905193203 | 26 | 83 | 4.8 | 12.9 | 0.00 | 0.00 | 0.00 | 78 | 1018.2 |
| 20260905192659 | 26 | 50 | 6.4 | 16.1 | 0.00 | 0.00 | 0.00 | 79 | 1018.3 |
| 20260905192155 | 26 | 85 | 6.4 | 14.5 | 0.00 | 0.00 | 0.00 | 81 | 1018.4 |
| 20260905191654 | 26 | 124 | 8.0 | 12.9 | 0.00 | 0.00 | 0.00 | 78 | 1018.2 |
| 20260905191152 | 26 | 73 | 6.4 | 9.7 | 0.00 | 0.00 | 0.00 | 78 | 1018.2 |
| 20260905190651 | 26 | 62 | 8.0 | 12.9 | 0.00 | 0.00 | 0.00 | 79 | 1018.4 |
| 20260905190150 | 26 | 71 | 11.3 | 14.5 | 0.00 | 0.00 | 0.00 | 78 | 1018.4 |
| 20260905185649 | 26 | 71 | 6.4 | 12.9 | 0.00 | 0.00 | 0.00 | 81 | 1018.1 |
| 20260905185144 | 26 | 72 | 11.3 | 12.9 | 0.00 | 0.00 | 0.00 | 79 | 1018.1 |
| 20260905184643 | 25 | 151 | 9.7 | 14.5 | 0.00 | 0.00 | 0.00 | 80 | 1018.3 |
| 20260905184142 | 25 | 88 | 4.8 | 14.5 | 0.00 | 0.00 | 0.00 | 80 | 1018.2 |
| 20260905183641 | 25 | 88 | 6.4 | 17.7 | 0.00 | 0.00 | 0.00 | 80 | 1018.3 |
| 20260905183137 | 25 | 105 | 8.0 | 16.1 | 0.00 | 0.00 | 0.00 | 81 | 1018.2 |
| 20260905182636 | 25 | 102 | 9.7 | 17.7 | 0.00 | 0.00 | 0.00 | 82 | 1018.0 |
| 20260905182131 | 25 | 151 | 6.4 | 11.3 | 0.00 | 0.00 | 0.00 | 81 | 1018.1 |
| 20260905181626 | 24 | 99 | 11.3 | 14.5 | 0.00 | 0.00 | 0.00 | 82 | 1018.0 |
| 20260905181125 | 24 | 93 | 11.3 | 12.9 | 0.00 | 0.00 | 0.00 | 82 | 1018.2 |
| 20260905180620 | 23 | 97 | 4.8 | 12.9 | 0.00 | 0.00 | 0.00 | 82 | 1018.4 |
| 20260905180116 | 23 | 94 | 4.8 | 12.9 | 0.00 | 0.00 | 0.00 | 84 | 1018.5 |
| 20260905175615 | 25 | 89 | 9.7 | 17.7 | 0.00 | 0.00 | 0.00 | 81 | 1018.9 |
| 20260905175110 | 23 | 127 | 9.7 | 11.3 | 0.00 | 0.00 | 0.00 | 81 | 1019.0 |
| 20260905174605 | 23 | 70 | 9.7 | 12.9 | 0.00 | 0.00 | 0.00 | 83 | 1018.8 |
| 20260905174101 | 23 | 114 | 6.4 | 11.3 | 0.00 | 0.00 | 0.00 | 82 | 1019.3 |
| 20260905173557 | 23 | 84 | 11.3 | 12.9 | 0.00 | 0.00 | 0.00 | 83 | 1019.3 |
| 20260905173052 | 23 | 88 | 9.7 | 16.1 | 0.00 | 0.00 | 0.00 | 85 | 1019.3 |
| 20260905172551 | 23 | 106 | 8.0 | 12.9 | 0.00 | 0.00 | 0.00 | 83 | 1019.4 |
| 20260905172047 | 22 | 85 | 6.4 | 12.9 | 0.00 | 0.00 | 0.00 | 85 | 1019.3 |
| 20260905171543 | 22 | 164 | 3.2 | 12.9 | 0.00 | 0.00 | 0.00 | 86 | 1019.3 |
| 20260905171038 | 22 | 98 | 3.2 | 6.4 | 0.00 | 0.00 | 0.00 | 85 | 1019.5 |
| 20260905170535 | 22 | 202 | 1.6 | 11.3 | 0.00 | 0.00 | 0.00 | 87 | 1019.6 |
| 20260905170030 | 21 | 218 | 1.6 | 6.4 | 0.00 | 0.00 | 0.00 | 88 | 1019.3 |
| 20260905165525 | 21 | 55 | 4.8 | 9.7 | 0.00 | 0.00 | 0.00 | 87 | 1019.3 |
| 20260905165020 | 21 | 215 | 3.2 | 6.4 | 0.00 | 0.00 | 0.00 | 88 | 1019.3 |
| 20260905164519 | 21 | 112 | 3.2 | 6.4 | 0.00 | 0.00 | 0.00 | 88 | 1019.2 |
| 20260905164014 | 21 | 105 | 8.0 | 11.3 | 0.00 | 0.00 | 0.00 | 89 | 1019.3 |
| 20260905163510 | 21 | 67 | 6.4 | 14.5 | 0.00 | 0.00 | 0.00 | 90 | 1019.1 |
| 20260905163006 | 21 | 94 | 6.4 | 12.9 | 0.00 | 0.00 | 0.00 | 90 | 1019.4 |
| 20260905162501 | 21 | 79 | 6.4 | 11.3 | 0.00 | 0.00 | 0.00 | 89 | 1019.2 |
| 20260905161956 | 21 | 94 | 6.4 | 12.9 | 0.00 | 0.00 | 0.00 | 88 | 1019.1 |
| 20260905161456 | 20 | 95 | 3.2 | 9.7 | 0.00 | 0.00 | 0.00 | 89 | 1019.2 |
| 20260905160954 | 20 | 116 | 6.4 | 12.9 | 0.00 | 0.00 | 0.00 | 91 | 1019.1 |
| 20260905160448 | 20 | 89 | 3.2 | 12.9 | 0.00 | 0.00 | 0.00 | 91 | 1019.2 |
| 20260905155947 | 20 | 81 | 3.2 | 4.8 | 0.00 | 0.00 | 0.00 | 90 | 1019.3 |
| 20260905155442 | 20 | 118 | 6.4 | 6.4 | 0.00 | 0.00 | 0.00 | 90 | 1019.2 |
| 20260905154941 | 20 | 77 | 3.2 | 4.8 | 0.00 | 0.00 | 0.00 | 91 | 1019.2 |
| 20260905154436 | 20 | 53 | 6.4 | 11.3 | 0.00 | 0.00 | 0.00 | 92 | 1019.2 |
| 20260905153932 | 19 | 96 | 6.4 | 11.3 | 0.00 | 0.00 | 0.00 | 92 | 1019.1 |
| 20260905153428 | 19 | 116 | 3.2 | 14.5 | 0.00 | 0.00 | 0.00 | 93 | 1019.2 |
| 20260905152927 | 19 | 106 | 4.8 | 6.4 | 0.00 | 0.00 | 0.00 | 93 | 1019.2 |
| 20260905152427 | 19 | 69 | 6.4 | 6.4 | 0.00 | 0.00 | 0.00 | 93 | 1019.2 |
| 20260905151922 | 19 | 65 | 4.8 | 11.3 | 0.00 | 0.00 | 0.00 | 93 | 1019.3 |
| 20260905151413 | 20 | 227 | 1.6 | 12.9 | 0.00 | 0.00 | 0.00 | 92 | 1019.2 |
| 20260905150912 | 20 | 232 | 3.2 | 6.4 | 0.00 | 0.00 | 0.00 | 91 | 1019.2 |
| 20260905150407 | 19 | 103 | 6.4 | 11.3 | 0.00 | 0.00 | 0.00 | 92 | 1019.2 |
| 20260905145903 | 19 | 94 | 8.0 | 17.7 | 0.00 | 0.00 | 0.00 | 93 | 1019.3 |
| 20260905145358 | 18 | 85 | 3.2 | 6.4 | 0.00 | 0.00 | 0.00 | 94 | 1019.0 |
| 20260905144857 | 18 | 59 | 6.4 | 16.1 | 0.00 | 0.00 | 0.00 | 95 | 1018.9 |
| 20260905144353 | 18 | 44 | 4.8 | 9.7 | 0.00 | 0.00 | 0.00 | 95 | 1018.9 |
| 20260905143852 | 18 | 61 | 3.2 | 4.8 | 0.00 | 0.00 | 0.00 | 96 | 1019.5 |
| 20260905143346 | 18 | 169 | 3.2 | 9.7 | 0.00 | 0.00 | 0.00 | 96 | 1019.4 |
| 20260905142845 | 18 | 104 | 3.2 | 4.8 | 0.00 | 0.00 | 0.00 | 98 | 1019.6 |
| 20260905142343 | 17 | 63 | 6.4 | 11.3 | 0.00 | 0.00 | 0.00 | 98 | 1019.6 |
| 20260905141840 | 17 | 141 | 3.2 | 6.4 | 0.00 | 0.00 | 0.00 | 99 | 1019.6 |
| 20260905141335 | 17 | 122 | 3.2 | 6.4 | 0.00 | 0.00 | 0.00 | 99 | 1019.6 |
| 20260905140831 | 17 | 179 | 1.6 | 6.4 | 0.00 | 0.00 | 0.00 | 99 | 1019.5 |
| 20260905140325 | 17 | 107 | 3.2 | 16.1 | 0.00 | 0.00 | 0.00 | 99 | 1019.6 |
| 20260905135824 | 17 | 62 | 8.0 | 9.7 | 0.00 | 0.00 | 0.00 | 99 | 1019.6 |
| 20260905135320 | 17 | 70 | 3.2 | 9.7 | 0.00 | 0.00 | 0.00 | 99 | 1019.6 |
| 20260905134816 | 17 | 108 | 6.4 | 6.4 | 0.00 | 0.00 | 0.00 | 99 | 1019.4 |
| 20260905134314 | 17 | 98 | 6.4 | 9.7 | 0.00 | 0.00 | 0.00 | 99 | 1019.2 |
| 20260905133808 | 17 | 95 | 4.8 | 9.7 | 0.00 | 0.00 | 0.00 | 99 | 1019.4 |
| 20260905133304 | 17 | 87 | 3.2 | 4.8 | 0.00 | 0.00 | 0.00 | 99 | 1019.6 |
| 20260905132803 | 17 | 109 | 4.8 | 6.4 | 0.00 | 0.00 | 0.00 | 99 | 1019.5 |
| 20260905132258 | 17 | 80 | 3.2 | 3.2 | 0.00 | 0.00 | 0.00 | 99 | 1019.6 |
| 20260905131753 | 17 | 231 | 0.0 | 3.2 | 0.00 | 0.00 | 0.00 | 99 | 1019.6 |
| 20260905131248 | 17 | 92 | 6.4 | 11.3 | 0.00 | 0.00 | 0.00 | 99 | 1019.3 |
| 20260905130743 | 17 | 169 | 1.6 | 4.8 | 0.00 | 0.00 | 0.00 | 99 | 1019.1 |
| 20260905130242 | 17 | 122 | 6.4 | 11.3 | 0.00 | 0.00 | 0.00 | 99 | 1019.0 |